Date String (YYYY-MM-DD hh:mm:ss) UTC,Instrument flags,absolute air pressure of the measurement (hPa),sample flow rate (lpm),inlet stack bypass flow (lpm),air temperature of the measurement (°C),ambient temperature measured by the external sensor (°C),aerosol sample conditioner tube jacket temperature (°C),OPC LED temperature (°C),internal box temperature (°C),relative humidity of the measurement (%),span deviation,mass concentration of particles derived from Lorenz-Mie calculation of OPC scattering (μg/m³),mass concentration of particles derived from Lorenz-Mie calculation of OPC scattering (μg/m³),mass concentration of particles derived from Lorenz-Mie calculation of OPC scattering (μg/m³)
DateTimeUTC,F1_M11,P_M11,Q1_M11,Q2_M11,T1_M11,T2_M11,T3_M11,T4_M11,T5_M11,U1_M11,ZSPAN_M11,X0_M11,X2_M11,X1_M11
2024-02-08 09:00:00,SystemResetWarning,0811.6,5.01,000.00,018.5,017.9,000.0,026.8,020.1,14.1,0000.0,0002.13,0000.25,0000.09
2024-02-08 09:01:00,SystemResetWarning,0811.5,4.99,000.00,018.5,017.9,000.0,026.8,020.1,13.8,0000.0,0002.09,0000.23,0000.09
2024-02-08 09:02:00,SystemResetWarning,0811.5,4.99,000.00,018.5,017.9,000.0,026.8,020.1,13.8,0000.0,0002.12,0000.24,0000.09
2024-02-08 09:03:00,SystemResetWarning,0811.4,5.00,000.00,018.5,017.9,000.0,026.8,020.1,14.1,0000.0,0000.98,0000.24,0000.09
2024-02-08 09:04:00,SystemResetWarning,0811.5,5.01,000.00,018.5,017.9,000.0,026.8,020.1,14.3,0000.0,0000.91,0000.25,0000.09
2024-02-08 09:05:00,SystemResetWarning,0811.4,5.01,000.00,018.5,017.8,000.0,026.8,020.0,14.5,0000.0,0002.06,0000.25,0000.09
2024-02-08 09:06:00,SystemResetWarning,0811.4,5.01,000.00,018.5,017.8,000.0,026.8,020.0,14.8,0000.0,0001.96,0000.23,0000.09
2024-02-08 09:07:00,SystemResetWarning,0811.4,5.00,000.00,018.4,017.8,000.0,026.8,020.0,14.6,0000.0,0001.93,0000.22,0000.09
2024-02-08 09:08:00,SystemResetWarning,0811.4,5.00,000.00,018.4,017.8,000.0,026.8,020.0,14.5,0000.0,0001.79,0000.19,0000.09
2024-02-08 09:09:00,SystemResetWarning,0811.4,5.00,000.00,018.4,017.8,000.0,026.8,020.0,14.8,0000.0,0001.76,0000.18,0000.09
2024-02-08 09:10:00,SystemResetWarning,0811.5,4.99,000.00,018.4,017.8,000.0,026.8,020.0,14.8,0000.0,0001.71,0000.17,0000.08
2024-02-08 09:11:00,SystemResetWarning,0811.5,5.00,000.00,018.4,017.8,000.0,026.8,020.0,15.1,0000.0,0001.66,0000.18,0000.09
2024-02-08 09:12:00,SystemResetWarning,0811.5,5.00,000.00,018.4,017.8,000.0,026.8,020.0,15.0,0000.0,0001.86,0000.21,0000.09
2024-02-08 09:13:00,SystemResetWarning,0811.5,5.01,000.00,018.4,017.8,000.0,026.8,020.0,14.9,0000.0,0001.86,0000.22,0000.09
2024-02-08 09:14:00,SystemResetWarning,0811.5,5.00,000.00,018.4,017.8,000.0,026.8,020.0,15.1,0000.0,0001.81,0000.24,0000.09
2024-02-08 09:15:00,SystemResetWarning,0811.4,5.00,000.00,018.4,017.8,000.0,026.8,020.0,15.1,0000.0,0001.83,0000.26,0000.09
2024-02-08 09:16:00,SystemResetWarning,0811.5,5.01,000.00,018.4,017.8,000.0,026.8,020.0,14.6,0000.0,0000.70,0000.26,0000.09
2024-02-08 09:17:00,SystemResetWarning,0811.5,5.00,000.00,018.4,017.8,000.0,026.8,020.0,14.9,0000.0,0000.75,0000.27,0000.09
2024-02-08 09:18:00,SystemResetWarning,0811.4,4.99,000.00,018.4,017.8,000.0,026.8,020.0,14.9,0000.0,0000.75,0000.27,0000.09
2024-02-08 09:19:00,SystemResetWarning,0811.4,5.00,000.00,018.4,017.8,000.0,026.8,020.0,14.6,0000.0,0000.87,0000.28,0000.09
2024-02-08 09:20:00,SystemResetWarning,0811.4,5.01,000.00,018.4,017.8,000.0,026.8,020.0,15.0,0000.0,0002.06,0000.30,0000.09
2024-02-08 09:21:00,SystemResetWarning,0811.5,5.01,000.00,018.4,017.8,000.0,026.8,020.0,15.0,0000.0,0002.40,0000.31,0000.09
2024-02-08 09:22:00,SystemResetWarning,0811.5,5.00,000.00,018.4,017.8,000.0,026.9,020.0,15.3,0000.0,0002.34,0000.29,0000.08
2024-02-08 09:23:00,SystemResetWarning,0811.5,5.01,000.00,018.4,017.7,000.0,026.9,020.0,15.3,0000.0,0002.15,0000.26,0000.08
2024-02-08 09:24:00,SystemResetWarning,0811.5,4.99,000.00,018.4,017.8,000.0,026.8,020.0,15.2,0000.0,0002.16,0000.26,0000.08
2024-02-08 09:25:00,SystemResetWarning,0811.4,4.99,000.00,018.4,017.7,000.0,026.8,020.0,15.2,0000.0,0002.13,0000.24,0000.07
2024-02-08 09:26:00,SystemResetWarning,0811.4,5.01,000.00,018.4,017.7,000.0,026.9,020.0,14.7,0000.0,0002.12,0000.23,0000.07
2024-02-08 09:27:00,SystemResetWarning,0811.4,5.01,000.00,018.4,017.7,000.0,026.9,020.0,14.9,0000.0,0002.10,0000.25,0000.07
2024-02-08 09:28:00,SystemResetWarning,0811.4,5.00,000.00,018.4,017.7,000.0,026.9,020.0,15.1,0000.0,0002.11,0000.28,0000.07
2024-02-08 09:29:00,SystemResetWarning,0811.5,5.00,000.00,018.4,017.7,000.0,026.9,020.0,14.8,0000.0,0002.15,0000.29,0000.08
2024-02-08 09:30:00,SystemResetWarning,0811.5,5.00,000.00,018.4,017.7,000.0,026.8,020.0,14.6,0000.0,0002.13,0000.30,0000.08
2024-02-08 09:31:00,SystemResetWarning,0811.5,5.00,000.00,018.4,017.7,000.0,026.8,020.0,14.7,0000.0,0001.10,0000.28,0000.07
2024-02-08 09:32:00,SystemResetWarning,0811.5,5.00,000.00,018.4,017.7,000.0,026.9,020.0,15.0,0000.0,0000.66,0000.28,0000.07
2024-02-08 09:33:00,SystemResetWarning,0811.5,5.00,000.00,018.4,017.7,000.0,026.8,020.0,15.2,0000.0,0000.72,0000.30,0000.08
2024-02-08 09:34:00,SystemResetWarning,0811.5,5.00,000.00,018.4,017.7,000.0,026.8,020.0,15.2,0000.0,0000.92,0000.36,0000.08
2024-02-08 09:35:00,SystemResetWarning,0811.5,5.00,000.00,018.4,017.7,000.0,026.8,020.0,15.1,0000.0,0000.95,0000.36,0000.08
2024-02-08 09:36:00,SystemResetWarning,0811.6,5.00,000.00,018.4,017.7,000.0,026.8,020.0,14.8,0000.0,0001.05,0000.37,0000.08
2024-02-08 09:37:00,SystemResetWarning,0811.6,5.00,000.00,018.4,017.7,000.0,026.8,020.0,14.9,0000.0,0001.05,0000.37,0000.08
2024-02-08 09:38:00,SystemResetWarning,0811.5,5.00,000.00,018.4,017.7,000.0,026.8,020.0,14.9,0000.0,0000.94,0000.33,0000.09
2024-02-08 09:39:00,SystemResetWarning,0811.5,5.00,000.00,018.4,017.7,000.0,026.8,020.0,15.1,0000.0,0000.89,0000.31,0000.09
2024-02-08 09:40:00,SystemResetWarning,0811.5,4.99,000.00,018.4,017.7,000.0,026.8,020.0,15.1,0000.0,0000.96,0000.30,0000.09
2024-02-08 09:41:00,SystemResetWarning,0811.4,5.00,000.00,018.4,017.7,000.0,026.8,020.0,14.5,0000.0,0001.03,0000.32,0000.09
2024-02-08 09:42:00,SystemResetWarning,0811.5,5.01,000.00,018.4,017.7,000.0,026.8,020.0,14.7,0000.0,0001.85,0000.32,0000.10
2024-02-08 09:43:00,SystemResetWarning,0811.5,5.01,000.00,018.4,017.7,000.0,026.8,020.0,14.9,0000.0,0002.16,0000.32,0000.09
2024-02-08 09:44:00,SystemResetWarning,0811.5,5.00,000.00,018.4,017.7,000.0,026.8,020.0,14.5,0000.0,0002.48,0000.33,0000.10
2024-02-08 09:45:00,SystemResetWarning,0811.5,4.98,000.00,018.4,017.7,000.0,026.8,020.0,14.6,0000.0,0002.39,0000.29,0000.10
2024-02-08 09:46:00,SystemResetWarning,0811.5,5.01,000.00,018.4,017.7,000.0,026.8,020.0,14.5,0000.0,0002.67,0000.28,0000.10
2024-02-08 09:47:00,SystemResetWarning,0811.5,5.01,000.00,018.4,017.7,000.0,026.8,020.0,14.5,0000.0,0002.59,0000.28,0000.09
2024-02-08 09:48:00,SystemResetWarning,0811.6,5.00,000.00,018.4,017.7,000.0,026.8,020.0,14.6,0000.0,0002.57,0000.28,0000.09
2024-02-08 09:49:00,SystemResetWarning,0811.5,5.00,000.00,018.4,017.7,000.0,026.8,020.0,15.0,0000.0,0002.57,0000.27,0000.08
2024-02-08 09:50:00,SystemResetWarning,0811.5,4.99,000.00,018.4,017.7,000.0,026.8,020.0,15.0,0000.0,0002.59,0000.27,0000.08
2024-02-08 09:51:00,SystemResetWarning,0811.7,5.00,000.00,018.4,017.7,000.0,026.8,020.0,14.7,0000.0,0002.58,0000.28,0000.08
2024-02-08 09:52:00,SystemResetWarning,0811.6,5.00,000.00,018.4,017.7,000.0,026.8,020.0,14.9,0000.0,0003.29,0000.26,0000.08
2024-02-08 09:53:00,SystemResetWarning,0811.6,5.00,000.00,018.4,017.7,000.0,026.8,020.0,14.8,0000.0,0003.63,0000.26,0000.08
2024-02-08 09:54:00,SystemResetWarning,0811.6,5.00,000.00,018.4,017.7,000.0,026.8,020.0,14.9,0000.0,0003.40,0000.28,0000.08
2024-02-08 09:55:00,SystemResetWarning,0811.6,5.01,000.00,018.4,017.7,000.0,026.8,020.0,14.9,0000.0,0003.24,0000.27,0000.08
2024-02-08 09:56:00,SystemResetWarning,0811.6,5.01,000.00,018.4,017.6,000.0,026.8,020.0,14.8,0000.0,0003.82,0000.27,0000.08
2024-02-08 09:57:00,SystemResetWarning,0811.6,5.00,000.00,018.4,017.6,000.0,026.8,020.0,15.4,0000.0,0003.56,0000.25,0000.07
2024-02-08 09:58:00,SystemResetWarning,0811.7,4.99,000.00,018.4,017.6,000.0,026.8,020.0,15.5,0000.0,0003.39,0000.25,0000.08
2024-02-08 09:59:00,SystemResetWarning,0811.7,5.00,000.00,018.4,017.6,000.0,026.8,020.0,15.0,0000.0,0003.42,0000.24,0000.08
